RANGE-B (43772 NORAD) Tracking and Keplerian Element Data

This shows tracking and keplerian element data for the satellite.

Feedback or suggestion? Click here.




ElementValue
Catalog43772
NameRANGE-B
Epoch Orbit3383
Epoch Day199.27769756
Epoch Year2019
RAAN270.9438
Inclination97.7496
Eccentricity0.001335
Argument of Perigee217.2358
Mean Anonmoly142.7938
Mean Motion14.94886931
Decay Rate6.33E-06
L11 43772U 18099Q 19199.27769756 .00000633 00000-0 63273-4 0 9995
L22 43772 97.7496 270.9438 0013350 217.2358 142.7938 14.94886931 33834

Live tracking and technical data element details for RANGE-B (NORAD 43772). RANGE-B can be tracked NOW for your location showing map with azimuth and elevation plus other details from your city location.

Track the satellite on the map from your city or location and see movement details for azimuth, elevation, latitude, longitude, range, height, and movement on the map or in text.







IsCatalogInMostPopularTable: catalog: 43772, numindb: 53
Update: records affected: 1



GetName: 43772 RANGE-B

Hit Count: updated at: Tue, 23 Jul 2019 02:45:14 GMT